Regional Weather Roundup
Issued by NWS Jackson, KY

Home | Current Version | Previous Version | Text Only | Print | Product List | Glossary On
Versions: 1 2 3 4 5 6 7 8 9 10 11 12 13 14 15 16 17 18 19 20 21 22 23 24 25 26 27 28 29 30 31 32 33 34 35 36 37 38 39 40 41 42 43 44 45 46 47 48 49 50
000
ASUS43 KJKL 301019
RWRJKL

EAST KENTUCKY HOURLY WEATHER ROUNDUP
NATIONAL WEATHER SERVICE JACKSON KY
500 AM EST FRI JAN 30 2015

NOTE: "FAIR" INDICATES FEW OR NO CLOUDS BELOW 12,000 FEET WITH
NO SIGNIFICANT WEATHER AND/OR OBSTRUCTIONS TO VISIBILITY.

* THESE REPORTS ARE NOT UNDER NWS QUALITY CONTROL AND MAY NOT
  REPORT WEATHER SUCH AS PRECIPITATION AND FOG.

KYZ079-080-083-085-087-088-110-112-115-119-120-301100
...EASTERN KENTUCKY...

CITY           SKY/WX    TMP DP  RH WIND       PRES   REMARKS
JACKSON        MIX PCPN  32  25  75 W7        30.23R WCI  26
LONDON         LGT RAIN  34  25  69 NW9       30.27R WCI  27
SOMERSET*      CLOUDY    32  28  86 NW7       30.32R WCI  26
MONTICELLO*    CLOUDY    35  29  79 NW9       30.33S WCI  28
MIDDLESBORO*   CLOUDY    34  27  76 NW5       30.27R WCI  30
HARLAN APT*    CLOUDY    32  27  80 W8G16     30.23R WCI  25
BLACK MTN*       N/A     21  21 100 N5          N/A  WCI  15
PIKEVILLE APT* FLURRIES  30  27  86 W8        30.20R WCI  23
BIG SANDY*     RAIN      32  27  81 NW9       30.21R WCI  25
MOREHEAD APT*  LGT RAIN  32  28  86 W6        30.27R WCI  26
ASHLAND*       MOCLDY    34  32  93 NW7       30.20R WCI  28
$$

KYZ035-036-041-042-044-050-067-078-099-301100
...CENTRAL KENTUCKY...

CITY           SKY/WX    TMP DP  RH WIND       PRES   REMARKS
MT STERLING*   CLOUDY    32  30  93 NW9       30.27R WCI  24
FLEMING/MASON* CLOUDY    32  26  78 W10       30.25R WCI  24
DANVILLE*      CLOUDY    32  28  86 NW6       30.30R WCI  26
RICHMOND*      CLOUDY    32  28  86 NW12      30.28R WCI  23
LEXINGTON      CLOUDY    32  26  78 W8        30.29R WCI  25
FRANKFORT      CLOUDY    33  27  78 W6        30.28R WCI  28
$$

KYZ091>093-OHZ055-061-077-WVZ005-015-034-035-042-301100
...SOUTHERN OHIO/WEST VIRGINIA...

CITY           SKY/WX    TMP DP  RH WIND       PRES   REMARKS
COVINGTON      CLOUDY    33  25  72 NW10G23   30.25R WCI  25
COLUMBUS       CLOUDY    28  25  86 NW16G29   30.18R WCI  17
DAYTON         CLOUDY    30  23  75 NW20G25   30.23R WCI  17
WILMINGTON     CLOUDY    28  23  81 NW14      30.21R WCI  17
HUNTINGTON     LGT SNOW  32  30  92 W7        30.20R FOG     WCI  26
CHARLESTON     LGT SNOW  32  27  81 NW13G23   30.16R WCI  22
PINEVILLE*     CLOUDY    33  31  94 MISG      30.16R
BECKLEY        LGT SNOW  28  24  85 NW12      30.05R FOG     WCI  18
BLUEFIELD      LGT SNOW  29  23  78 NW14G23   30.04R WCI  18
$$

VAZ002-007-008-TNZ017-027-036-066-071-301100
...SOUTHWEST VIRGINIA/EAST TENNESSEE...

CITY           SKY/WX    TMP DP  RH WIND       PRES   REMARKS
WISE*          CLOUDY    30  25  80 NW18G33   30.14R WCI  18
JONESVILLE*    MIX PCPN  32  27  80 NW7G17    30.25R WCI  26
ABINGDON*      CLOUDY    34  27  75 N9        30.13R WCI  26
BRISTOL        CLOUDY    35  26  69 NW14G22   30.18R WCI  26
KNOXVILLE      CLOUDY    37  26  64 N5        30.27R WCI  33
OAK RIDGE      CLOUDY    38  26  62 N5        30.29R WCI  34
CROSSVILLE     CLOUDY    34  25  69 NW14G21   30.26R WCI  25
NASHVILLE      CLOUDY    37  27  67 NW9       30.38R WCI  30
$$

...KEY TO REMARKS...
VSB - VISIBILITY IN MILES
WCI - WIND CHILL INDEX
HX  - HEAT INDEX

$$


USA.gov is the U.S. government's official web portal to all federal, state and local government web resources and services.